| time (UTC) | temp F | wind direction | speed MPH | gust MPH | rain 1hr in | rain 24hr in | rain mn in | humidity % | barometer mb |
| 20260505205603 | 85 | 167 | 8.0 | 15.0 | 0.00 | 0.00 | 0.00 | 71 | 1005.9 |
| 20260505205101 | 84 | 155 | 4.0 | 10.0 | 0.00 | 0.00 | 0.00 | 73 | 1006.0 |
| 20260505204558 | 85 | 142 | 4.0 | 11.0 | 0.00 | 0.00 | 0.00 | 72 | 1006.1 |
| 20260505204055 | 85 | 183 | 8.0 | 13.0 | 0.00 | 0.00 | 0.00 | 72 | 1006.2 |
| 20260505203551 | 85 | 175 | 8.0 | 11.0 | 0.00 | 0.00 | 0.00 | 71 | 1006.3 |
| 20260505203049 | 85 | 212 | 6.0 | 9.0 | 0.00 | 0.00 | 0.00 | 72 | 1006.3 |
| 20260505202545 | 85 | 146 | 2.0 | 10.0 | 0.00 | 0.00 | 0.00 | 72 | 1006.3 |
| 20260505202041 | 85 | 136 | 4.0 | 12.0 | 0.00 | 0.00 | 0.00 | 72 | 1006.4 |
| 20260505201538 | 86 | 205 | 4.0 | 11.0 | 0.00 | 0.00 | 0.00 | 71 | 1006.4 |
| 20260505201036 | 85 | 217 | 7.0 | 13.0 | 0.00 | 0.00 | 0.00 | 72 | 1006.7 |
| 20260505200533 | 84 | 177 | 4.0 | 8.0 | 0.00 | 0.00 | 0.00 | 73 | 1006.8 |
| 20260505200030 | 84 | 130 | 5.0 | 10.0 | 0.00 | 0.00 | 0.00 | 73 | 1006.9 |
| 20260505195526 | 84 | 158 | 4.0 | 7.0 | 0.00 | 0.00 | 0.00 | 74 | 1006.9 |
| 20260505195024 | 84 | 177 | 4.0 | 11.0 | 0.00 | 0.00 | 0.00 | 74 | 1006.7 |
| 20260505194515 | 84 | 149 | 6.0 | 11.0 | 0.00 | 0.00 | 0.00 | 73 | 1007.0 |
| 20260505194010 | 84 | 140 | 2.0 | 12.0 | 0.00 | 0.00 | 0.00 | 75 | 1007.0 |
| 20260505193508 | 83 | 209 | 6.0 | 11.0 | 0.00 | 0.00 | 0.00 | 75 | 1007.2 |
| 20260505193005 | 83 | 224 | 6.0 | 12.0 | 0.00 | 0.00 | 0.00 | 75 | 1007.0 |
| 20260505192504 | 83 | 213 | 3.0 | 10.0 | 0.00 | 0.00 | 0.00 | 74 | 1007.1 |
| 20260505192001 | 84 | 203 | 8.0 | 9.0 | 0.00 | 0.00 | 0.00 | 74 | 1007.1 |
| 20260505191459 | 84 | 162 | 6.0 | 10.0 | 0.00 | 0.00 | 0.00 | 73 | 1007.2 |
| 20260505190956 | 85 | 204 | 5.0 | 15.0 | 0.00 | 0.00 | 0.00 | 72 | 1007.1 |
| 20260505190451 | 85 | 195 | 4.0 | 9.0 | 0.00 | 0.00 | 0.00 | 73 | 1007.0 |
| 20260505185947 | 84 | 198 | 4.0 | 7.0 | 0.00 | 0.00 | 0.00 | 74 | 1007.2 |
| 20260505185444 | 84 | 159 | 8.0 | 12.0 | 0.00 | 0.00 | 0.00 | 74 | 1007.1 |
| 20260505184940 | 84 | 187 | 3.0 | 9.0 | 0.00 | 0.00 | 0.00 | 74 | 1007.4 |
| 20260505184437 | 84 | 220 | 2.0 | 9.0 | 0.00 | 0.00 | 0.00 | 75 | 1007.3 |
| 20260505183934 | 83 | 214 | 6.0 | 14.0 | 0.00 | 0.00 | 0.00 | 76 | 1007.4 |
| 20260505183431 | 82 | 172 | 4.0 | 6.0 | 0.00 | 0.00 | 0.00 | 77 | 1007.4 |
| 20260505182928 | 82 | 204 | 2.0 | 6.0 | 0.00 | 0.00 | 0.00 | 78 | 1007.4 |
| 20260505182425 | 81 | 166 | 3.0 | 7.0 | 0.00 | 0.00 | 0.00 | 79 | 1007.4 |
| 20260505181921 | 82 | 197 | 6.0 | 6.0 | 0.00 | 0.00 | 0.00 | 78 | 1007.3 |
| 20260505181419 | 82 | 216 | 2.0 | 7.0 | 0.00 | 0.00 | 0.00 | 78 | 1007.7 |
| 20260505180915 | 82 | 155 | 5.0 | 9.0 | 0.00 | 0.00 | 0.00 | 77 | 1007.4 |
| 20260505180411 | 82 | 198 | 2.0 | 8.0 | 0.00 | 0.00 | 0.00 | 78 | 1007.6 |
| 20260505175908 | 81 | 151 | 2.0 | 9.0 | 0.00 | 0.00 | 0.00 | 80 | 1007.5 |
| 20260505175405 | 80 | 180 | 3.0 | 10.0 | 0.00 | 0.00 | 0.00 | 80 | 1007.5 |
| 20260505174901 | 81 | 215 | 2.0 | 6.0 | 0.00 | 0.00 | 0.00 | 80 | 1007.7 |
| 20260505174359 | 81 | 239 | 2.0 | 7.0 | 0.00 | 0.00 | 0.00 | 79 | 1007.9 |
| 20260505173854 | 81 | 240 | 5.0 | 6.0 | 0.00 | 0.00 | 0.00 | 79 | 1007.9 |
| 20260505173351 | 81 | 193 | 2.0 | 8.0 | 0.00 | 0.00 | 0.00 | 79 | 1007.8 |
| 20260505172848 | 81 | 289 | 2.0 | 8.0 | 0.00 | 0.00 | 0.00 | 79 | 1007.9 |
| 20260505172346 | 81 | 236 | 4.0 | 7.0 | 0.00 | 0.00 | 0.00 | 80 | 1008.1 |
| 20260505171845 | 80 | 202 | 4.0 | 7.0 | 0.00 | 0.00 | 0.00 | 81 | 1007.9 |
| 20260505171342 | 80 | 162 | 3.0 | 9.0 | 0.00 | 0.00 | 0.00 | 82 | 1008.0 |
| 20260505170839 | 80 | 184 | 4.0 | 7.0 | 0.00 | 0.00 | 0.00 | 81 | 1008.2 |
| 20260505170336 | 80 | 235 | 1.0 | 9.0 | 0.00 | 0.00 | 0.00 | 81 | 1008.1 |
| 20260505165831 | 80 | 185 | 4.0 | 12.0 | 0.00 | 0.00 | 0.00 | 82 | 1007.8 |
| 20260505165327 | 80 | 261 | 3.0 | 6.0 | 0.00 | 0.00 | 0.00 | 83 | 1008.1 |
| 20260505164823 | 79 | 158 | 4.0 | 5.0 | 0.00 | 0.00 | 0.00 | 85 | 1008.1 |
| 20260505164320 | 78 | 256 | 4.0 | 5.0 | 0.00 | 0.00 | 0.00 | 86 | 1008.2 |
| 20260505163818 | 78 | 164 | 2.0 | 6.0 | 0.00 | 0.00 | 0.00 | 86 | 1008.0 |
| 20260505163316 | 79 | 198 | 7.0 | 11.0 | 0.00 | 0.00 | 0.00 | 84 | 1008.0 |
| 20260505162814 | 79 | 221 | 4.0 | 11.0 | 0.00 | 0.00 | 0.00 | 83 | 1008.0 |
| 20260505162310 | 79 | 189 | 2.0 | 9.0 | 0.00 | 0.00 | 0.00 | 83 | 1008.0 |
| 20260505161808 | 79 | 198 | 5.0 | 8.0 | 0.00 | 0.00 | 0.00 | 82 | 1008.0 |
| 20260505161305 | 79 | 214 | 3.0 | 10.0 | 0.00 | 0.00 | 0.00 | 83 | 1008.1 |
| 20260505160802 | 79 | 192 | 2.0 | 9.0 | 0.00 | 0.00 | 0.00 | 83 | 1008.0 |
| 20260505160300 | 79 | 173 | 5.0 | 6.0 | 0.00 | 0.00 | 0.00 | 83 | 1008.0 |
| 20260505153238 | 78 | 137 | 2.0 | 5.0 | 0.00 | 0.00 | 0.00 | 85 | 1007.9 |
| 20260505152735 | 77 | 177 | 4.0 | 6.0 | 0.00 | 0.00 | 0.00 | 87 | 1007.8 |
| 20260505152231 | 77 | 154 | 4.0 | 8.0 | 0.00 | 0.00 | 0.00 | 87 | 1007.7 |
| 20260505151726 | 77 | 190 | 5.0 | 9.0 | 0.00 | 0.00 | 0.00 | 88 | 1007.7 |
| 20260505151224 | 77 | 200 | 4.0 | 5.0 | 0.00 | 0.00 | 0.00 | 88 | 1007.8 |
| 20260505150720 | 76 | 179 | 3.0 | 5.0 | 0.00 | 0.00 | 0.00 | 87 | 1007.8 |
| 20260505150218 | 76 | 201 | 2.0 | 5.0 | 0.00 | 0.00 | 0.00 | 88 | 1007.7 |
| 20260505140645 | 77 | 179 | 3.0 | 9.0 | 0.00 | 0.00 | 0.00 | 88 | 1007.4 |
| 20260505140143 | 76 | 177 | 3.0 | 10.0 | 0.00 | 0.00 | 0.00 | 88 | 1007.3 |
| 20260505130106 | 73 | 188 | 6.0 | 6.0 | 0.00 | 0.00 | 0.00 | 93 | 1007.4 |
| 20260505124556 | 73 | 171 | 3.0 | 5.0 | 0.00 | 0.00 | 0.00 | 94 | 1007.3 |
| 20260505124052 | 72 | 174 | 2.0 | 5.0 | 0.00 | 0.00 | 0.00 | 94 | 1007.2 |
| 20260505123548 | 72 | 225 | 3.0 | 4.0 | 0.00 | 0.00 | 0.00 | 94 | 1007.3 |
| 20260505123045 | 72 | 300 | 0.0 | 4.0 | 0.00 | 0.00 | 0.00 | 94 | 1007.3 |
| 20260505122542 | 72 | 201 | 2.0 | 4.0 | 0.00 | 0.00 | 0.00 | 95 | 1007.2 |
| 20260505122038 | 72 | 195 | 2.0 | 3.0 | 0.00 | 0.00 | 0.00 | 95 | 1006.9 |
| 20260505121535 | 71 | 163 | 2.0 | 4.0 | 0.00 | 0.00 | 0.00 | 95 | 1007.2 |
| 20260505121032 | 71 | 209 | 2.0 | 3.0 | 0.00 | 0.00 | 0.00 | 96 | 1007.2 |
| 20260505120528 | 71 | 144 | 1.0 | 3.0 | 0.00 | 0.00 | 0.00 | 96 | 1007.1 |
| 20260505120023 | 71 | 268 | 1.0 | 2.0 | 0.00 | 0.00 | 0.00 | 96 | 1006.9 |
| 20260505115518 | 71 | 196 | 4.0 | 5.0 | 0.00 | 0.00 | 0.00 | 96 | 1006.9 |
| 20260505115016 | 71 | 170 | 2.0 | 5.0 | 0.00 | 0.00 | 0.00 | 96 | 1006.8 |
| 20260505114513 | 71 | 158 | 2.0 | 4.0 | 0.00 | 0.00 | 0.00 | 96 | 1006.7 |
| 20260505114009 | 71 | 299 | 1.0 | 3.0 | 0.00 | 0.00 | 0.00 | 95 | 1006.7 |
| 20260505113507 | 71 | 164 | 0.0 | 3.0 | 0.00 | 0.00 | 0.00 | 95 | 1006.9 |
| 20260505113003 | 71 | 203 | 4.0 | 5.0 | 0.00 | 0.00 | 0.00 | 96 | 1007.2 |
| 20260505112459 | 71 | 193 | 4.0 | 4.0 | 0.00 | 0.00 | 0.00 | 95 | 1007.2 |
| 20260505111956 | 71 | 195 | 2.0 | 4.0 | 0.00 | 0.00 | 0.00 | 96 | 1007.0 |
| 20260505111456 | 70 | 183 | 3.0 | 4.0 | 0.00 | 0.00 | 0.00 | 96 | 1006.9 |
| 20260505110952 | 70 | 211 | 2.0 | 3.0 | 0.00 | 0.00 | 0.00 | 96 | 1006.9 |
| 20260505110449 | 70 | 187 | 3.0 | 3.0 | 0.00 | 0.00 | 0.00 | 96 | 1006.8 |
| 20260505101915 | 70 | 196 | 2.0 | 4.0 | 0.00 | 0.00 | 0.00 | 94 | 1007.2 |
| 20260505101414 | 70 | 205 | 2.0 | 4.0 | 0.00 | 0.00 | 0.00 | 94 | 1007.0 |
| 20260505100911 | 71 | 163 | 2.0 | 5.0 | 0.00 | 0.00 | 0.00 | 94 | 1006.7 |
| 20260505100408 | 71 | 154 | 1.0 | 4.0 | 0.00 | 0.00 | 0.00 | 94 | 1007.0 |
| 20260505095903 | 71 | 196 | 2.0 | 5.0 | 0.00 | 0.00 | 0.00 | 94 | 1006.9 |
| 20260505095400 | 71 | 199 | 3.0 | 4.0 | 0.00 | 0.00 | 0.00 | 93 | 1007.4 |
| 20260505094857 | 71 | 193 | 1.0 | 5.0 | 0.00 | 0.00 | 0.00 | 93 | 1007.1 |
| 20260505094355 | 71 | 287 | 0.0 | 3.0 | 0.00 | 0.00 | 0.00 | 93 | 1007.2 |
| 20260505093850 | 71 | 180 | 3.0 | 4.0 | 0.00 | 0.00 | 0.00 | 93 | 1006.9 |
| 20260505093347 | 71 | 180 | 3.0 | 4.0 | 0.00 | 0.00 | 0.00 | 93 | 1007.1 |
| 20260505092845 | 71 | 199 | 3.0 | 5.0 | 0.00 | 0.00 | 0.00 | 93 | 1006.9 |
| 20260505092342 | 71 | 190 | 3.0 | 5.0 | 0.00 | 0.00 | 0.00 | 93 | 1007.0 |
| 20260505091839 | 70 | 206 | 2.0 | 3.0 | 0.00 | 0.00 | 0.00 | 93 | 1007.2 |
| 20260505091337 | 70 | 217 | 3.0 | 5.0 | 0.00 | 0.00 | 0.00 | 93 | 1007.2 |
| 20260505090834 | 70 | 168 | 0.0 | 4.0 | 0.00 | 0.00 | 0.00 | 93 | 1007.3 |
| 20260505090333 | 70 | 237 | 0.0 | 6.0 | 0.00 | 0.00 | 0.00 | 93 | 1007.4 |
| 20260505085830 | 70 | 245 | 0.0 | 3.0 | 0.00 | 0.00 | 0.00 | 93 | 1007.4 |
| 20260505085328 | 70 | 188 | 2.0 | 4.0 | 0.00 | 0.00 | 0.00 | 93 | 1007.3 |
| 20260505084825 | 70 | 186 | 2.0 | 3.0 | 0.00 | 0.00 | 0.00 | 93 | 1007.4 |
| 20260505084324 | 70 | 216 | 0.0 | 3.0 | 0.00 | 0.00 | 0.00 | 93 | 1007.3 |
| 20260505083820 | 70 | 178 | 3.0 | 5.0 | 0.00 | 0.00 | 0.00 | 93 | 1007.5 |
| 20260505083318 | 70 | 210 | 2.0 | 4.0 | 0.00 | 0.00 | 0.00 | 93 | 1007.5 |
| 20260505082814 | 70 | 186 | 2.0 | 3.0 | 0.00 | 0.00 | 0.00 | 93 | 1007.6 |
| 20260505082311 | 70 | 238 | 1.0 | 4.0 | 0.00 | 0.00 | 0.00 | 93 | 1007.6 |
| 20260505081807 | 70 | 192 | 3.0 | 4.0 | 0.00 | 0.00 | 0.00 | 92 | 1007.7 |
| 20260505081304 | 70 | 190 | 2.0 | 4.0 | 0.00 | 0.00 | 0.00 | 92 | 1007.7 |
| 20260505080800 | 70 | 225 | 1.0 | 5.0 | 0.00 | 0.00 | 0.00 | 92 | 1007.6 |
| 20260505080256 | 70 | 173 | 2.0 | 4.0 | 0.00 | 0.00 | 0.00 | 92 | 1007.6 |
| 20260505075752 | 70 | 180 | 1.0 | 4.0 | 0.00 | 0.00 | 0.00 | 91 | 1007.8 |
| 20260505075249 | 70 | 187 | 2.0 | 4.0 | 0.00 | 0.00 | 0.00 | 91 | 1007.9 |
| 20260505074747 | 70 | 126 | 0.0 | 3.0 | 0.00 | 0.00 | 0.00 | 91 | 1007.8 |
| 20260505074243 | 70 | 196 | 2.0 | 4.0 | 0.00 | 0.00 | 0.00 | 91 | 1007.9 |
| 20260505073741 | 71 | 157 | 4.0 | 7.0 | 0.00 | 0.00 | 0.00 | 90 | 1007.8 |
| 20260505073238 | 70 | 172 | 1.0 | 5.0 | 0.00 | 0.00 | 0.00 | 90 | 1007.9 |
| 20260505072735 | 70 | 175 | 3.0 | 5.0 | 0.00 | 0.00 | 0.00 | 90 | 1007.9 |
| 20260505072231 | 70 | 197 | 3.0 | 6.0 | 0.00 | 0.00 | 0.00 | 90 | 1008.0 |
| 20260505071727 | 70 | 179 | 4.0 | 5.0 | 0.00 | 0.00 | 0.00 | 90 | 1008.0 |
| 20260505071224 | 71 | 179 | 2.0 | 5.0 | 0.00 | 0.00 | 0.00 | 90 | 1007.9 |
| 20260505070722 | 71 | 193 | 2.0 | 5.0 | 0.00 | 0.00 | 0.00 | 90 | 1008.1 |
| 20260505070218 | 71 | 162 | 3.0 | 6.0 | 0.00 | 0.00 | 0.00 | 89 | 1008.1 |
| 20260505065714 | 71 | 188 | 1.0 | 7.0 | 0.00 | 0.00 | 0.00 | 89 | 1008.0 |
| 20260505065211 | 71 | 171 | 3.0 | 5.0 | 0.00 | 0.00 | 0.00 | 89 | 1008.1 |
| 20260505064708 | 71 | 187 | 4.0 | 7.0 | 0.00 | 0.00 | 0.00 | 89 | 1008.2 |
| 20260505064206 | 71 | 173 | 3.0 | 6.0 | 0.00 | 0.00 | 0.00 | 89 | 1008.4 |
| 20260505063703 | 71 | 182 | 3.0 | 4.0 | 0.00 | 0.00 | 0.00 | 89 | 1008.5 |
| 20260505063159 | 71 | 198 | 4.0 | 4.0 | 0.00 | 0.00 | 0.00 | 88 | 1008.3 |
| 20260505062655 | 71 | 150 | 4.0 | 5.0 | 0.00 | 0.00 | 0.00 | 88 | 1008.3 |
| 20260505062153 | 71 | 174 | 2.0 | 5.0 | 0.00 | 0.00 | 0.00 | 88 | 1008.4 |
| 20260505061650 | 71 | 180 | 2.0 | 6.0 | 0.00 | 0.00 | 0.00 | 88 | 1008.5 |
| 20260505061148 | 71 | 149 | 0.0 | 4.0 | 0.00 | 0.00 | 0.00 | 88 | 1008.6 |
| 20260505060645 | 71 | 115 | 0.0 | 6.0 | 0.00 | 0.00 | 0.00 | 88 | 1008.9 |
| 20260505060142 | 71 | 193 | 4.0 | 4.0 | 0.00 | 0.00 | 0.00 | 88 | 1008.8 |
| 20260505055637 | 71 | 182 | 3.0 | 6.0 | 0.00 | 0.00 | 0.00 | 87 | 1008.7 |
| 20260505055134 | 71 | 144 | 4.0 | 5.0 | 0.00 | 0.00 | 0.00 | 87 | 1008.7 |
| 20260505054631 | 71 | 206 | 2.0 | 4.0 | 0.00 | 0.00 | 0.00 | 87 | 1008.6 |
| 20260505054129 | 71 | 186 | 3.0 | 4.0 | 0.00 | 0.00 | 0.00 | 87 | 1008.8 |
| 20260505053626 | 71 | 48 | 0.0 | 3.0 | 0.00 | 0.00 | 0.00 | 87 | 1008.6 |
| 20260505053122 | 71 | 201 | 0.0 | 4.0 | 0.00 | 0.00 | 0.00 | 86 | 1009.0 |
| 20260505052620 | 71 | 217 | 1.0 | 5.0 | 0.00 | 0.00 | 0.00 | 86 | 1008.7 |
| 20260505052117 | 71 | 190 | 1.0 | 5.0 | 0.00 | 0.00 | 0.00 | 86 | 1009.2 |
| 20260505051614 | 71 | 299 | 0.0 | 2.0 | 0.00 | 0.00 | 0.00 | 86 | 1009.0 |
| 20260505051112 | 71 | 168 | 5.0 | 5.0 | 0.00 | 0.00 | 0.00 | 86 | 1009.1 |
| 20260505050610 | 71 | 149 | 4.0 | 6.0 | 0.00 | 0.00 | 0.00 | 85 | 1009.1 |
| 20260505050108 | 71 | 177 | 4.0 | 6.0 | 0.00 | 0.00 | 0.00 | 85 | 1009.3 |
| 20260505041537 | 72 | 187 | 7.0 | 11.0 | 0.00 | 0.00 | 0.00 | 83 | 1009.2 |
| 20260505041035 | 72 | 162 | 6.0 | 9.0 | 0.00 | 0.00 | 0.00 | 83 | 1009.2 |
| 20260505040532 | 72 | 173 | 6.0 | 9.0 | 0.00 | 0.00 | 0.00 | 83 | 1009.0 |
| 20260505040029 | 72 | 160 | 6.0 | 7.0 | 0.00 | 0.00 | 0.00 | 82 | 1009.3 |
| 20260505035525 | 72 | 179 | 2.0 | 7.0 | 0.00 | 0.00 | 0.00 | 82 | 1009.4 |
| 20260505035022 | 72 | 23 | 0.0 | 5.0 | 0.00 | 0.00 | 0.00 | 82 | 1009.4 |
| 20260505034518 | 72 | 169 | 8.0 | 9.0 | 0.00 | 0.00 | 0.00 | 82 | 1009.3 |
| 20260505034016 | 72 | 163 | 3.0 | 6.0 | 0.00 | 0.00 | 0.00 | 81 | 1009.4 |
| 20260505033513 | 72 | 185 | 1.0 | 5.0 | 0.00 | 0.00 | 0.00 | 81 | 1009.4 |
| 20260505033011 | 73 | 210 | 2.0 | 6.0 | 0.00 | 0.00 | 0.00 | 81 | 1009.5 |
| 20260505032508 | 73 | 184 | 4.0 | 9.0 | 0.00 | 0.00 | 0.00 | 80 | 1009.6 |
| 20260505032004 | 73 | 173 | 3.0 | 9.0 | 0.00 | 0.00 | 0.00 | 80 | 1009.6 |
| 20260505031501 | 73 | 164 | 5.0 | 6.0 | 0.00 | 0.00 | 0.00 | 80 | 1009.6 |
| 20260505030958 | 73 | 171 | 6.0 | 9.0 | 0.00 | 0.00 | 0.00 | 80 | 1009.4 |
| 20260505030454 | 73 | 178 | 4.0 | 9.0 | 0.00 | 0.00 | 0.00 | 79 | 1009.3 |
| 20260505025949 | 73 | 155 | 2.0 | 7.0 | 0.00 | 0.00 | 0.00 | 79 | 1009.4 |
| 20260505025447 | 73 | 162 | 2.0 | 8.0 | 0.00 | 0.00 | 0.00 | 79 | 1009.4 |
| 20260505024946 | 74 | 164 | 5.0 | 7.0 | 0.00 | 0.00 | 0.00 | 78 | 1009.5 |
| 20260505024442 | 74 | 164 | 3.0 | 9.0 | 0.00 | 0.00 | 0.00 | 78 | 1009.5 |
| 20260505023940 | 74 | 173 | 3.0 | 5.0 | 0.00 | 0.00 | 0.00 | 78 | 1009.7 |
| 20260505023437 | 74 | 350 | 2.0 | 5.0 | 0.00 | 0.00 | 0.00 | 78 | 1009.3 |
| 20260505022934 | 74 | 153 | 3.0 | 5.0 | 0.00 | 0.00 | 0.00 | 78 | 1009.2 |
| 20260505022432 | 74 | 169 | 5.0 | 8.0 | 0.00 | 0.00 | 0.00 | 77 | 1009.4 |
| 20260505021928 | 74 | 168 | 3.0 | 9.0 | 0.00 | 0.00 | 0.00 | 77 | 1009.4 |
| 20260505021425 | 74 | 159 | 5.0 | 6.0 | 0.00 | 0.00 | 0.00 | 77 | 1009.3 |
| 20260505020920 | 74 | 175 | 2.0 | 10.0 | 0.00 | 0.00 | 0.00 | 76 | 1009.2 |
| 20260505020416 | 74 | 169 | 4.0 | 8.0 | 0.00 | 0.00 | 0.00 | 76 | 1009.3 |
| 20260505015913 | 74 | 161 | 4.0 | 9.0 | 0.00 | 0.00 | 0.00 | 76 | 1008.9 |
| 20260505015411 | 75 | 182 | 5.0 | 10.0 | 0.00 | 0.00 | 0.00 | 76 | 1009.1 |
| 20260505014908 | 75 | 173 | 5.0 | 11.0 | 0.00 | 0.00 | 0.00 | 75 | 1009.2 |
| 20260505014404 | 75 | 153 | 3.0 | 8.0 | 0.00 | 0.00 | 0.00 | 75 | 1009.0 |
| 20260505013901 | 75 | 159 | 3.0 | 7.0 | 0.00 | 0.00 | 0.00 | 75 | 1009.0 |
| 20260505013358 | 75 | 177 | 2.0 | 6.0 | 0.00 | 0.00 | 0.00 | 75 | 1008.9 |
| 20260505012856 | 75 | 175 | 5.0 | 9.0 | 0.00 | 0.00 | 0.00 | 75 | 1008.8 |
| 20260505012354 | 75 | 170 | 2.0 | 10.0 | 0.00 | 0.00 | 0.00 | 74 | 1009.0 |
| 20260505011850 | 75 | 193 | 3.0 | 10.0 | 0.00 | 0.00 | 0.00 | 74 | 1008.8 |
| 20260505011347 | 75 | 177 | 4.0 | 7.0 | 0.00 | 0.00 | 0.00 | 74 | 1008.6 |
| 20260505010843 | 75 | 182 | 2.0 | 8.0 | 0.00 | 0.00 | 0.00 | 74 | 1008.9 |
| 20260505010339 | 76 | 155 | 8.0 | 9.0 | 0.00 | 0.00 | 0.00 | 73 | 1008.8 |
| 20260505005835 | 76 | 147 | 2.0 | 6.0 | 0.00 | 0.00 | 0.00 | 73 | 1008.9 |
| 20260505005332 | 76 | 201 | 0.0 | 4.0 | 0.00 | 0.00 | 0.00 | 73 | 1008.6 |
| 20260505004830 | 76 | 140 | 3.0 | 7.0 | 0.00 | 0.00 | 0.00 | 73 | 1008.7 |
| 20260505004326 | 76 | 169 | 5.0 | 7.0 | 0.00 | 0.00 | 0.00 | 72 | 1008.8 |
| 20260505003823 | 76 | 151 | 4.0 | 10.0 | 0.00 | 0.00 | 0.00 | 72 | 1008.7 |
| 20260505003321 | 77 | 150 | 2.0 | 6.0 | 0.00 | 0.00 | 0.00 | 72 | 1008.6 |
| 20260505002816 | 77 | 160 | 0.0 | 5.0 | 0.00 | 0.00 | 0.00 | 72 | 1008.6 |
| 20260505002314 | 77 | 157 | 6.0 | 9.0 | 0.00 | 0.00 | 0.00 | 72 | 1008.5 |
| 20260505001812 | 77 | 158 | 6.0 | 8.0 | 0.00 | 0.00 | 0.00 | 71 | 1008.9 |
| 20260505001309 | 77 | 139 | 3.0 | 8.0 | 0.00 | 0.00 | 0.00 | 70 | 1008.9 |
| 20260505000806 | 78 | 171 | 5.0 | 6.0 | 0.00 | 0.00 | 0.00 | 70 | 1008.7 |
| 20260505000304 | 77 | 179 | 4.0 | 6.0 | 0.00 | 0.00 | 0.00 | 70 | 1008.8 |
| 20260504235800 | 77 | 179 | 5.0 | 7.0 | 0.00 | 0.00 | 0.00 | 71 | 1008.7 |
| 20260504235256 | 77 | 116 | 6.0 | 9.0 | 0.00 | 0.00 | 0.00 | 70 | 1008.5 |
| 20260504234754 | 77 | 185 | 5.0 | 8.0 | 0.00 | 0.00 | 0.00 | 70 | 1008.8 |
| 20260504234251 | 78 | 241 | 1.0 | 8.0 | 0.00 | 0.00 | 0.00 | 69 | 1009.0 |
| 20260504233747 | 78 | 170 | 3.0 | 11.0 | 0.00 | 0.00 | 0.00 | 69 | 1009.0 |
| 20260504233243 | 78 | 150 | 3.0 | 5.0 | 0.00 | 0.00 | 0.00 | 69 | 1009.1 |
| 20260504232740 | 78 | 138 | 3.0 | 11.0 | 0.00 | 0.00 | 0.00 | 69 | 1009.0 |
| 20260504232237 | 78 | 158 | 9.0 | 13.0 | 0.00 | 0.00 | 0.00 | 68 | 1009.2 |
| 20260504231734 | 78 | 181 | 4.0 | 9.0 | 0.00 | 0.00 | 0.00 | 68 | 1009.1 |
| 20260504231230 | 78 | 158 | 7.0 | 9.0 | 0.00 | 0.00 | 0.00 | 68 | 1009.2 |
| 20260504230726 | 79 | 181 | 2.0 | 8.0 | 0.00 | 0.00 | 0.00 | 67 | 1008.9 |
| 20260504230225 | 79 | 185 | 2.0 | 11.0 | 0.00 | 0.00 | 0.00 | 67 | 1009.2 |
| 20260504225724 | 79 | 177 | 4.0 | 6.0 | 0.00 | 0.00 | 0.00 | 67 | 1009.2 |
| 20260504225219 | 79 | 187 | 2.0 | 6.0 | 0.00 | 0.00 | 0.00 | 67 | 1009.2 |
| 20260504224717 | 79 | 144 | 6.0 | 13.0 | 0.00 | 0.00 | 0.00 | 67 | 1009.4 |
| 20260504224214 | 80 | 135 | 3.0 | 9.0 | 0.00 | 0.00 | 0.00 | 65 | 1009.4 |
| 20260504223710 | 80 | 187 | 3.0 | 8.0 | 0.00 | 0.00 | 0.00 | 65 | 1009.5 |
| 20260504223206 | 80 | 144 | 2.0 | 9.0 | 0.00 | 0.00 | 0.00 | 64 | 1009.5 |
| 20260504222703 | 79 | 168 | 5.0 | 11.0 | 0.00 | 0.00 | 0.00 | 64 | 1009.4 |
| 20260504222200 | 80 | 8 | 2.0 | 12.0 | 0.00 | 0.00 | 0.00 | 64 | 1009.4 |
| 20260504221657 | 80 | 171 | 5.0 | 8.0 | 0.00 | 0.00 | 0.00 | 63 | 1009.5 |
| 20260504221154 | 80 | 152 | 2.0 | 9.0 | 0.00 | 0.00 | 0.00 | 63 | 1009.7 |
| 20260504220650 | 80 | 159 | 3.0 | 9.0 | 0.00 | 0.00 | 0.00 | 62 | 1009.5 |
| 20260504220148 | 80 | 179 | 10.0 | 13.0 | 0.00 | 0.00 | 0.00 | 62 | 1009.8 |
| 20260504215644 | 80 | 170 | 5.0 | 11.0 | 0.00 | 0.00 | 0.00 | 61 | 1009.8 |
| 20260504215142 | 80 | 158 | 7.0 | 10.0 | 0.00 | 0.00 | 0.00 | 61 | 1009.7 |
| 20260504214637 | 81 | 181 | 3.0 | 7.0 | 0.00 | 0.00 | 0.00 | 61 | 1009.8 |
| 20260504214134 | 81 | 153 | 8.0 | 9.0 | 0.00 | 0.00 | 0.00 | 61 | 1010.1 |
| 20260504213630 | 81 | 160 | 3.0 | 6.0 | 0.00 | 0.00 | 0.00 | 60 | 1009.9 |
| 20260504213127 | 81 | 175 | 2.0 | 10.0 | 0.00 | 0.00 | 0.00 | 59 | 1010.0 |
| 20260504212624 | 81 | 183 | 6.0 | 10.0 | 0.00 | 0.00 | 0.00 | 59 | 1010.3 |
| 20260504212121 | 81 | 160 | 8.0 | 11.0 | 0.00 | 0.00 | 0.00 | 58 | 1010.1 |
| 20260504211618 | 82 | 159 | 3.0 | 9.0 | 0.00 | 0.00 | 0.00 | 58 | 1010.0 |
| 20260504211114 | 82 | 218 | 1.0 | 9.0 | 0.00 | 0.00 | 0.00 | 57 | 1010.3 |
| 20260504210612 | 82 | 181 | 2.0 | 5.0 | 0.00 | 0.00 | 0.00 | 57 | 1010.1 |
| 20260504210108 | 83 | 227 | 2.0 | 7.0 | 0.00 | 0.00 | 0.00 | 57 | 1010.2 |